Date,TemperatureHighF,TemperatureAvgF,TemperatureLowF,DewpointHighF,DewpointAvgF,DewpointLowF,HumidityHigh,HumidityAvg,HumidityLow,PressureMaxIn,PressureMinIn,WindSpeedMaxMPH,WindSpeedAvgMPH,GustSpeedMaxMPH,PrecipitationSumIn
2013-3-1,26,21,16,17,14,12,85,75,65,30.21,30.07,22,12,27,0.00
2013-3-2,25,20,15,19,14,10,84,78,70,30.18,30.08,17,10,24,0.00
2013-3-3,25,20,15,18,15,10,88,81,67,30.08,30.04,15,8,21,0.00
2013-3-4,27,20,12,19,14,9,90,77,54,30.16,30.07,13,5,16,0.00
2013-3-5,29,24,18,23,18,11,85,81,69,30.15,30.00,16,8,22,0.00
2013-3-6,34,31,28,31,28,23,96,88,82,30.25,30.06,17,8,28,0.00
2013-3-7,28,26,25,24,21,18,90,79,73,30.41,30.24,19,8,24,0.00
2013-3-8,34,29,22,30,25,20,92,86,77,30.49,30.35,10,4,14,0.00
2013-3-9,44,37,27,34,26,23,92,68,48,30.34,29.90,21,8,24,0.29
2013-3-10,41,38,35,39,36,34,98,94,84,29.90,29.75,20,8,25,0.54
2013-3-11,43,38,32,43,38,32,99,98,97,29.77,29.39,22,8,30,0.45
2013-3-12,32,27,23,32,25,19,99,91,83,29.82,29.45,20,11,25,0.00
2013-3-13,28,25,20,21,17,14,91,75,55,30.18,29.81,24,15,32,0.01
2013-3-14,31,28,24,24,21,16,82,74,67,30.21,29.93,17,8,23,0.00
2013-3-15,34,29,21,31,23,13,95,78,65,29.94,29.82,21,13,30,0.00
2013-3-16,22,20,17,18,14,11,90,78,65,30.00,29.88,17,8,22,0.00
2013-3-17,24,20,15,22,11,6,92,69,56,30.32,30.01,29,11,35,0.00
2013-3-18,39,26,14,29,20,8,95,77,48,30.20,29.47,24,10,30,0.00
2013-3-19,31,26,23,30,24,17,95,91,69,29.79,29.41,25,14,34,0.00
2013-3-20,26,24,22,23,18,13,92,78,68,29.84,29.78,24,15,34,0.00
2013-3-21,28,26,25,26,22,20,93,83,76,29.92,29.79,23,14,30,0.00
2013-3-22,31,29,26,26,24,20,90,83,76,30.03,29.89,18,10,22,0.00
2013-3-23,34,31,27,30,26,23,90,84,72,30.10,30.02,11,6,16,0.00
2013-3-24,35,31,28,27,24,19,90,77,53,30.07,29.83,13,7,17,0.00
2013-3-25,36,33,30,31,28,24,89,81,75,29.97,29.81,19,10,24,0.00
2013-3-26,39,35,33,32,30,26,94,84,61,30.10,29.97,16,8,20,0.00
2013-3-27,39,34,32,32,30,29,92,85,74,30.18,30.08,13,8,18,0.00
2013-3-28,40,36,33,30,28,26,87,74,60,30.24,30.18,16,7,18,0.00
2013-3-29,42,35,28,31,25,20,92,69,45,30.26,30.18,13,5,15,0.00
2013-3-30,49,40,32,39,24,19,92,55,33,30.18,29.75,19,8,30,0.07
2013-3-31,41,36,28,40,34,21,99,92,73,29.74,29.53,30,12,37,0.04